Regional Weather Roundup
Issued by NWS Midland/Odessa, TX

Home | Current Version | Previous Version | Text Only | Print | Product List | Glossary On
Versions: 1 2 3 4 5 6 7 8 9 10 11 12 13 14 15 16 17 18 19 20 21 22 23 24 25 26 27 28 29 30 31 32 33 34 35 36 37 38 39 40 41 42 43 44 45 46 47 48 49 50
000
ASUS44 KMAF 070810
RWRMAF
MIDLAND AREA WEATHER ROUNDUP
NATIONAL WEATHER SERVICE MIDLAND TX
300 AM CDT THU MAY 07 2015

...IN SOUTHWEST TEXAS AND SOUTHEAST NEW MEXICO...

CITY           SKY/WX    TMP DP  RH WIND       PRES   REMARKS
ALPINE         CLEAR     64  59  83 S7G20     29.91F
ANDREWS        CLOUDY    67  64  91 S12G18    29.82R
ARTESIA        PTCLDY    64  64 100 SE10      29.81F
BIG SPRING     MOCLDY    71  66  84 SE13      29.82S
CARLSBAD       PTCLDY    66  61  84 SE7       29.79F
DRYDEN           N/A     72  68  87 SE14      29.77F
FORT STOCKTON  PTCLDY    68  63  84 S14       29.78F
GUAD PASS      PTCLDY    60  51  72 NE10      29.92F
HOBBS          PTCLDY    64  64 100 S12       29.85F
MARFA          CLEAR     50  41  71 CALM      29.90F
MIDLAND AIRPK  PTCLDY    69  64  82 S14       29.80F
MIDLAND INTL   CLOUDY    69  63  81 S15       29.79F
ODESSA         PTCLDY    69  62  78 S14       29.80F
PECOS          PTCLDY    70  61  73 SE7       29.76R
PRESIDIO       FAIR      72  58  61 N7        29.76S
SEMINOLE       CLEAR     64  62  92 S9        29.83S
SNYDER         CLOUDY    69  64  85 SE6       29.83F
WINK           MOCLDY    69  61  75 SE16      29.76F
$$
...OTHER STATIONS IN TEXAS...

CITY           SKY/WX    TMP DP  RH WIND       PRES   REMARKS
ABILENE        CLEAR     70  63  78 SE16      29.84F
AMARILLO       CLEAR     55  51  86 SE14      29.83R
AUSTIN         CLOUDY    73  70  90 SE7       29.88F
BROWNSVILLE    CLOUDY    78  75  90 SE14      29.82F
CORPUS CHRISTI CLOUDY    77  73  87 SE14      29.83F
DALLAS FTW     CLOUDY    73  68  84 S10G20    29.90R
DEL RIO        CLOUDY    75  69  81 SE14G22   29.78F
EL PASO        PTCLDY    72  23  16 W16G22    29.85R
HOUSTON INT    MOCLDY    74  71  91 SE9       29.92F
LUBBOCK        CLEAR     65  62  90 S12       29.83R
SAN ANGELO     MOCLDY    73  65  75 S9        29.81F
SAN ANTONIO    CLOUDY    74  69  85 SE14      29.87F
WACO           PTCLDY    71  68  90 SE12      29.88F
WICHITA FALLS  NOT AVBL
$$
...OTHER LOCATIONS IN NEW MEXICO...

CITY           SKY/WX    TMP DP  RH WIND       PRES   REMARKS
ALAMAGORDO     MOCLDY    59  25  27 CALM      29.86S
ALBUQUERQUE    PTCLDY    54  45  71 CALM      29.91S
CANNON AFB     CLEAR     58  56  92 SW9       29.84F
CLOVIS         CLEAR     59  54  82 SW15      29.85S
HOLLOMAN AFB   MOCLDY    58  30  34 SE5       29.84S
ROSWELL        PTCLDY    60  44  55 W5        29.83S
RUIDOSO        CLEAR     50  18  27 S9        29.99S
SANTA FE       PTCLDY    46  39  76 N8        29.93F
TRUTH OR CONSE CLEAR     58  17  20 W9        29.88R
TUCUMCARI      PTCLDY    52  45  77 CALM      29.80F
$$



USA.gov is the U.S. government's official web portal to all federal, state and local government web resources and services.